Location: G�ndlingen
(48.0142°N, 7.6396°E)
Time: 18:14:14
(UTC+00:00)

Cosmos 1328 Rocket - Pass Details

Date: 05 July 2020
Orbit: 601 x 627 km, 82.5° (Epoch: 12 August)

Event Time Altitude Azimuth Distance (km) Brightness Sun altitude
Rises 22:42:30 0° 354° (N) 2,868 8.7 -18.4°
Reaches altitude 10° 22:44:46 10° 358° (N) 1,958 7.3 -18.5°
Maximum altitude 22:49:02 56° 78° (ENE) 718 3.8 -18.6°
Enters shadow 22:50:27 37° 136° (SE) 938 4.0 -18.6°
